ROMMA est une association bénévole à but non lucratif. Votre soutien est indispensable : ADHERER à ROMMA ou FAIRE un DON

Le Versoud - (38, Isère)

Vallée du Grésivaudan (220 m)   Longitude: 05° 51' 44" E   Latitude: 45° 13' 06" N Station partenaire n°6
 

Détail journalier du     <<     >>

Température Humidité Pression Vent Dir Rafale Dir. rafale Ensol.
Heure (°C) (%) (hPa) (km/h) (km/h) (min)
01:00 25.363101300---0
02:00 24.268101300---0
03:00 23.670101300---0
04:00 22.276101200---0
05:00 21.877101200---0
06:00 21.280101200---0
07:00 20.882101200---0
08:00 22.277101200---20
09:00 24.369101202ENE60
10:00 26.262101102ENE60
11:00 28.355101005ENE60
12:00 30.251100903NNE60
13:00 31.445100805NNO60
14:00 33.138100705NNO60
15:00 34.335100606NO45
16:00 34.83110061NO6NO60
17:00 35.92810051NNO6NO60
18:00 36.32910042NNO18SO60
19:00 33.24010042SO21OSO15
20:00 31.648100400---15
21:00 30.644100506NNE15
22:00 25.95510087S42S0
23:00 20.78610091---27SSO0
minuit 19.989100808E0

Graphique du 26-07-2019

 

Serveur OMMA